NOZ422 ENGM-ENML

Flight info

Callsign NOZ422
Flight time 0h 43m
Altitude 30000
Route EVTOG DCT PIGED DCT VEPUL
Aircraft B738/M-SDE2E3GHIJ1LRWXY/LB1

Departure

Time 2026-04-15 14:44
Airport Oslo-Gardermoen International Airport (ENGM)

Arrival

Time 2026-04-15 15:28
Airport Molde Airport, Årø (ENML)
Time Latitude Longitude Altitude Speed Heading
2026-04-15 14:12 60.19485 11.09270 678 ft 0 kts 16°
2026-04-15 14:37 60.19484 11.09270 684 ft 2 kts 16°
2026-04-15 14:37 60.19460 11.09256 681 ft 4 kts 15°
2026-04-15 14:37 60.19434 11.09243 677 ft 3 kts 15°
2026-04-15 14:38 60.19415 11.09231 676 ft 4 kts 40°
2026-04-15 14:38 60.19404 11.09190 681 ft 4 kts 90°
2026-04-15 14:38 60.19405 11.09160 676 ft 1 kts 106°
2026-04-15 14:40 60.19404 11.09165 676 ft 1 kts 104°
2026-04-15 14:40 60.19408 11.09198 676 ft 3 kts 60°
2026-04-15 14:41 60.19437 11.09201 679 ft 6 kts 315°
2026-04-15 14:41 60.19454 11.09105 681 ft 9 kts 287°
2026-04-15 14:41 60.19476 11.08955 684 ft 14 kts 285°
2026-04-15 14:41 60.19506 11.08745 679 ft 18 kts 287°
2026-04-15 14:42 60.19500 11.08519 676 ft 16 kts 212°
2026-04-15 14:42 60.19396 11.08453 675 ft 15 kts 196°
2026-04-15 14:42 60.19294 11.08398 674 ft 15 kts 195°
2026-04-15 14:42 60.19227 11.08278 672 ft 15 kts 278°
2026-04-15 14:43 60.19254 11.08083 671 ft 15 kts 287°
2026-04-15 14:43 60.19287 11.07896 670 ft 14 kts 305°
2026-04-15 14:43 60.19368 11.07875 671 ft 7 kts 15°
2026-04-15 14:43 60.19375 11.07880 671 ft 8 kts 15°
2026-04-15 14:44 60.19677 11.08053 671 ft 83 kts 16°
2026-04-15 14:44 60.20452 11.08500 677 ft 147 kts 16°
2026-04-15 14:44 60.21580 11.09138 972 ft 178 kts 16°
2026-04-15 14:44 60.22747 11.09803 1965 ft 174 kts 19°
2026-04-15 14:45 60.23978 11.10499 2316 ft 197 kts 18°
2026-04-15 14:45 60.25383 11.11256 2528 ft 220 kts 15°
2026-04-15 14:45 60.26990 11.11258 2714 ft 244 kts 352°
2026-04-15 14:45 60.28732 11.10666 2999 ft 263 kts 352°
2026-04-15 14:46 60.30537 11.10041 3590 ft 270 kts 347°
2026-04-15 14:46 60.32242 11.08466 4321 ft 273 kts 327°
2026-04-15 14:46 60.33827 11.06330 5101 ft 274 kts 326°
2026-04-15 14:46 60.35427 11.04172 5801 ft 278 kts 326°
2026-04-15 14:47 60.37045 11.01986 6524 ft 282 kts 326°
2026-04-15 14:47 60.38681 10.99771 7240 ft 285 kts 326°
2026-04-15 14:47 60.40336 10.97530 7975 ft 288 kts 327°
2026-04-15 14:47 60.42014 10.95253 8688 ft 292 kts 327°
2026-04-15 14:48 60.43690 10.92976 9434 ft 296 kts 327°
2026-04-15 14:48 60.45413 10.90632 10187 ft 301 kts 327°
2026-04-15 14:48 60.47173 10.88235 10694 ft 314 kts 327°
2026-04-15 14:48 60.49052 10.85675 10893 ft 337 kts 326°
2026-04-15 14:49 60.51048 10.82950 11265 ft 351 kts 326°
2026-04-15 14:49 60.53083 10.80164 11973 ft 354 kts 326°
2026-04-15 14:49 60.55123 10.77369 12847 ft 353 kts 326°
2026-04-15 14:49 60.57156 10.74579 13756 ft 352 kts 325°
2026-04-15 14:50 60.59159 10.71826 14551 ft 353 kts 325°
2026-04-15 14:50 60.61202 10.69013 15258 ft 356 kts 325°
2026-04-15 14:50 60.63270 10.66162 15943 ft 361 kts 325°
2026-04-15 14:50 60.65363 10.63272 16636 ft 365 kts 325°
2026-04-15 14:51 60.67475 10.60351 17357 ft 368 kts 325°
2026-04-15 14:51 60.69600 10.57407 18061 ft 372 kts 325°
2026-04-15 14:51 60.71753 10.54421 18724 ft 375 kts 325°
2026-04-15 14:51 60.73918 10.51413 19345 ft 378 kts 326°
2026-04-15 14:52 60.76095 10.48383 20015 ft 378 kts 326°
2026-04-15 14:52 60.78244 10.45387 20667 ft 380 kts 326°
2026-04-15 14:52 60.80431 10.42333 21301 ft 382 kts 326°
2026-04-15 14:52 60.82631 10.39256 21909 ft 384 kts 326°
2026-04-15 14:53 60.84842 10.36158 22514 ft 386 kts 326°
2026-04-15 14:53 60.87061 10.33043 23094 ft 388 kts 326°
2026-04-15 14:53 60.89289 10.29910 23787 ft 387 kts 327°
2026-04-15 14:53 60.91513 10.26777 24315 ft 388 kts 327°
2026-04-15 14:54 60.93746 10.23627 24799 ft 390 kts 327°
2026-04-15 14:54 60.95947 10.20515 25387 ft 388 kts 327°
2026-04-15 14:54 60.98164 10.17375 26014 ft 386 kts 326°
2026-04-15 14:54 61.00371 10.14246 26625 ft 384 kts 326°
2026-04-15 14:55 61.02562 10.11132 27213 ft 382 kts 326°
2026-04-15 14:55 61.04748 10.08021 27789 ft 381 kts 326°
2026-04-15 14:55 61.06928 10.04913 28395 ft 379 kts 326°
2026-04-15 14:55 61.09092 10.01823 28993 ft 378 kts 326°
2026-04-15 14:56 61.11250 9.98737 29563 ft 376 kts 326°
2026-04-15 14:56 61.13369 9.95701 30150 ft 374 kts 326°
2026-04-15 14:56 61.15525 9.92607 30283 ft 381 kts 326°
2026-04-15 14:57 61.19860 9.86370 30298 ft 376 kts 326°
2026-04-15 14:57 61.24125 9.80211 30322 ft 374 kts 326°
2026-04-15 14:58 61.28364 9.74070 30298 ft 366 kts 326°
2026-04-15 14:58 61.32481 9.68084 30321 ft 365 kts 326°
2026-04-15 14:59 61.36657 9.61998 30320 ft 368 kts 326°
2026-04-15 14:59 61.40855 9.55857 30307 ft 369 kts 326°
2026-04-15 15:00 61.45046 9.49704 30302 ft 367 kts 326°
2026-04-15 15:00 61.49184 9.43607 30309 ft 365 kts 326°
2026-04-15 15:01 61.53259 9.37583 30171 ft 349 kts 326°
2026-04-15 15:01 61.55222 9.34674 29961 ft 341 kts 326°
2026-04-15 15:01 61.57146 9.31818 29576 ft 338 kts 326°
2026-04-15 15:01 61.59047 9.28986 29250 ft 333 kts 326°
2026-04-15 15:02 61.60921 9.26188 28911 ft 329 kts 326°
2026-04-15 15:02 61.62757 9.23448 28512 ft 326 kts 326°
2026-04-15 15:02 61.64591 9.20707 28203 ft 321 kts 327°
2026-04-15 15:02 61.66406 9.17993 27866 ft 318 kts 327°
2026-04-15 15:03 61.68201 9.15307 27514 ft 316 kts 327°
2026-04-15 15:03 61.69980 9.12640 27178 ft 312 kts 327°
2026-04-15 15:03 61.71739 9.09998 26872 ft 308 kts 327°
2026-04-15 15:03 61.73487 9.07371 26526 ft 308 kts 327°
2026-04-15 15:04 61.75229 9.04749 26189 ft 307 kts 327°
2026-04-15 15:04 61.76960 9.02144 25888 ft 315 kts 327°
2026-04-15 15:04 61.78781 8.99411 25551 ft 327 kts 327°
2026-04-15 15:04 61.80641 8.96608 25198 ft 328 kts 327°
2026-04-15 15:05 61.82489 8.93810 24848 ft 325 kts 327°
2026-04-15 15:05 61.84322 8.91028 24497 ft 324 kts 327°
2026-04-15 15:05 61.86146 8.88255 24146 ft 322 kts 327°
2026-04-15 15:05 61.87957 8.85498 23799 ft 319 kts 327°
2026-04-15 15:06 61.91497 8.80029 23023 ft 316 kts 322°
2026-04-15 15:06 61.93009 8.76553 22437 ft 325 kts 310°
2026-04-15 15:06 61.94344 8.72677 21973 ft 325 kts 309°
2026-04-15 15:07 61.95643 8.68795 21645 ft 321 kts 309°
2026-04-15 15:07 61.96928 8.64930 21296 ft 319 kts 309°
2026-04-15 15:07 61.98202 8.61101 20932 ft 316 kts 308°
2026-04-15 15:07 61.99466 8.57308 20625 ft 313 kts 308°
2026-04-15 15:08 62.00731 8.53523 20169 ft 315 kts 308°
2026-04-15 15:08 62.01983 8.49777 19842 ft 314 kts 308°
2026-04-15 15:08 62.03245 8.45999 19506 ft 313 kts 308°
2026-04-15 15:08 62.04502 8.42232 19176 ft 312 kts 308°
2026-04-15 15:09 62.05754 8.38479 18854 ft 311 kts 308°
2026-04-15 15:09 62.07003 8.34729 18507 ft 309 kts 308°
2026-04-15 15:09 62.08242 8.31003 18168 ft 307 kts 308°
2026-04-15 15:09 62.09475 8.27293 17829 ft 305 kts 307°
2026-04-15 15:10 62.10694 8.23615 17525 ft 302 kts 307°
2026-04-15 15:10 62.11905 8.19959 17209 ft 300 kts 307°
2026-04-15 15:10 62.13090 8.16374 16906 ft 298 kts 307°
2026-04-15 15:10 62.14281 8.12765 16601 ft 296 kts 307°
2026-04-15 15:11 62.15464 8.09178 16287 ft 294 kts 306°
2026-04-15 15:11 62.16637 8.05612 15991 ft 293 kts 306°
2026-04-15 15:11 62.17806 8.02055 15682 ft 291 kts 306°
2026-04-15 15:11 62.18968 7.98516 15392 ft 290 kts 306°
2026-04-15 15:12 62.20124 7.94985 15096 ft 289 kts 306°
2026-04-15 15:12 62.21277 7.91460 14795 ft 289 kts 306°
2026-04-15 15:12 62.22411 7.87987 14508 ft 288 kts 306°
2026-04-15 15:12 62.23556 7.84476 14192 ft 287 kts 305°
2026-04-15 15:13 62.24699 7.80964 13889 ft 287 kts 305°
2026-04-15 15:13 62.25839 7.77459 13567 ft 286 kts 305°
2026-04-15 15:13 62.26972 7.73967 13263 ft 285 kts 305°
2026-04-15 15:13 62.28107 7.70465 12965 ft 286 kts 304°
2026-04-15 15:14 62.29244 7.66953 12678 ft 286 kts 304°
2026-04-15 15:14 62.30379 7.63437 12369 ft 286 kts 304°
2026-04-15 15:14 62.31497 7.59972 12087 ft 285 kts 304°
2026-04-15 15:14 62.32623 7.56476 11780 ft 283 kts 304°
2026-04-15 15:15 62.33742 7.52998 11491 ft 282 kts 303°
2026-04-15 15:15 62.34851 7.49545 11203 ft 280 kts 303°
2026-04-15 15:15 62.35954 7.46104 10914 ft 279 kts 303°
2026-04-15 15:15 62.37053 7.42671 10637 ft 278 kts 302°
2026-04-15 15:16 62.38150 7.39240 10343 ft 277 kts 303°
2026-04-15 15:16 62.39236 7.35838 10159 ft 273 kts 303°
2026-04-15 15:16 62.40287 7.32539 10031 ft 268 kts 302°
2026-04-15 15:16 62.41335 7.29244 9724 ft 266 kts 302°
2026-04-15 15:17 62.42376 7.25971 9481 ft 262 kts 302°
2026-04-15 15:17 62.43401 7.22739 9218 ft 261 kts 302°
2026-04-15 15:17 62.44424 7.19511 8955 ft 259 kts 302°
2026-04-15 15:17 62.45440 7.16300 8691 ft 258 kts 302°
2026-04-15 15:18 62.46450 7.13101 8422 ft 257 kts 302°
2026-04-15 15:18 62.47457 7.09911 8170 ft 257 kts 302°
2026-04-15 15:18 62.48459 7.06733 7918 ft 254 kts 302°
2026-04-15 15:18 62.49453 7.03573 7650 ft 254 kts 302°
2026-04-15 15:19 62.50428 7.00469 7392 ft 253 kts 302°
2026-04-15 15:19 62.51416 6.97318 7120 ft 252 kts 302°
2026-04-15 15:19 62.52396 6.94192 6883 ft 250 kts 302°
2026-04-15 15:19 62.53372 6.91077 6610 ft 250 kts 302°
2026-04-15 15:20 62.54345 6.87966 6335 ft 249 kts 302°
2026-04-15 15:20 62.55303 6.84898 6231 ft 242 kts 302°
2026-04-15 15:20 62.56234 6.81911 6123 ft 236 kts 302°
2026-04-15 15:20 62.57140 6.79002 5992 ft 229 kts 302°
2026-04-15 15:21 62.58232 6.76624 5884 ft 229 kts 332°
2026-04-15 15:21 62.59695 6.75460 5860 ft 219 kts 340°
2026-04-15 15:21 62.61093 6.74395 5733 ft 208 kts 339°
2026-04-15 15:21 62.62452 6.73355 5525 ft 205 kts 339°
2026-04-15 15:22 62.63795 6.72375 5300 ft 201 kts 346°
2026-04-15 15:22 62.65092 6.72753 5226 ft 185 kts 35°
2026-04-15 15:22 62.65905 6.74927 5077 ft 189 kts 61°
2026-04-15 15:22 62.66530 6.77428 4799 ft 190 kts 65°
2026-04-15 15:23 62.67119 6.79981 4523 ft 187 kts 66°
2026-04-15 15:23 62.67628 6.82561 4275 ft 184 kts 71°
2026-04-15 15:23 62.68065 6.85156 4025 ft 181 kts 72°
2026-04-15 15:23 62.68472 6.87725 3767 ft 178 kts 73°
2026-04-15 15:24 62.68865 6.90257 3521 ft 175 kts 73°
2026-04-15 15:24 62.69251 6.92755 3279 ft 174 kts 73°
2026-04-15 15:24 62.69639 6.95262 3037 ft 175 kts 73°
2026-04-15 15:24 62.70029 6.97777 2790 ft 176 kts 73°
2026-04-15 15:25 62.70413 7.00253 2544 ft 170 kts 73°
2026-04-15 15:25 62.70787 7.02655 2330 ft 167 kts 73°
2026-04-15 15:25 62.71155 7.05021 2075 ft 162 kts 73°
2026-04-15 15:25 62.71515 7.07337 1838 ft 157 kts 73°
2026-04-15 15:26 62.71852 7.09492 1614 ft 146 kts 72°
2026-04-15 15:26 62.72170 7.11534 1419 ft 140 kts 73°
2026-04-15 15:26 62.72485 7.13549 1224 ft 141 kts 72°
2026-04-15 15:26 62.72803 7.15592 1048 ft 142 kts 73°
2026-04-15 15:27 62.73122 7.17628 839 ft 141 kts 73°
2026-04-15 15:27 62.73435 7.19629 622 ft 138 kts 72°
2026-04-15 15:27 62.73747 7.21593 405 ft 136 kts 73°
2026-04-15 15:27 62.74045 7.23516 208 ft 136 kts 72°
2026-04-15 15:28 62.74353 7.25458 28 ft 136 kts 72°
2026-04-15 15:28 62.74616 7.27127 21 ft 88 kts 71°
2026-04-15 15:28 62.74762 7.28049 20 ft 44 kts 71°
2026-04-15 15:28 62.74828 7.28467 18 ft 20 kts 72°
2026-04-15 15:29 62.74876 7.28677 16 ft 10 kts 45°
2026-04-15 15:29 62.74863 7.28724 15 ft 4 kts 195°
2026-04-15 15:29 62.74851 7.28662 16 ft 6 kts 259°
2026-04-15 15:29 62.74833 7.28510 20 ft 15 kts 253°
2026-04-15 15:30 62.74790 7.28225 19 ft 24 kts 250°
2026-04-15 15:30 62.74730 7.27839 18 ft 30 kts 251°
2026-04-15 15:30 62.74658 7.27380 18 ft 33 kts 251°
2026-04-15 15:30 62.74583 7.26911 18 ft 32 kts 251°
2026-04-15 15:31 62.74514 7.26479 18 ft 25 kts 251°
2026-04-15 15:31 62.74526 7.26275 19 ft 11 kts 334°
2026-04-15 15:31 62.74565 7.26202 21 ft 6 kts 293°
2026-04-15 15:31 62.74591 7.26163 22 ft 4 kts 341°
2026-04-15 15:32 62.74606 7.26152 22 ft 0 kts 341°